Погода в Светлом

Россия / Республика Саха (Якутия)     63°02′59″N   113°25′37″E
темп.,
°C
ветер,
м/с
пор.,
м/с
влажн.,
%
обл.,
%
осадки,
мм/ч
давл.,
гПа
погр.,
м
1 марта, пн
пн100:00−34юз1210095 0.0 103219
03:00−35юз1210098 0.0 103119
06:00−37юз1110089 0.0 103119
09:00−38юз1110080 0.0 103119
12:00−31зюз249370 0.0 1030298
15:00−28зюз238884 0.0 1029528
18:00−30зюз1295100 0.0 102819
21:00−35зсз0010084 0.0 102819
2 марта, вт
вт200:00−37ссв001000 0.0 102719
03:00−39всв001000 0.0 102719
06:00−40св111005 0.0 102718
09:00−40св111007 0.0 102718
12:00−32св129214 0.0 1026234
15:00−28св228851 0.0 1025461
18:00−30ссв2294100 0.0 102522
21:00−36ссв129974 0.0 102619
3 марта, ср
ср300:00−38ссв129951 0.0 102719
03:00−39ссв129952 0.0 102718
06:00−41с119951 0.0 102818
09:00−41ссз119858 0.0 102918
12:00−34сз129168 0.0 1028271
15:00−30сз238782 0.0 1028449
18:00−32сз229499 0.0 102922
21:00−38зсз119559 0.0 103019
4 марта, чт
чт400:00−40з11970 0.0 103118
03:00−40з12950 0.0 103218
06:00−41з22950 0.0 103218
09:00−41з22960 0.0 103333
12:00−34з37945 0.0 1033325
15:00−30з489216 0.0 1033419
18:00−30з499139 0.0 1034442
21:00−34з379529 0.0 1035152
5 марта, пт
пт500:00−36зюз24960 0.0 103569
03:00−37зюз23990 0.0 103632
06:00−37зюз2210053 0.0 103623
09:00−37зюз229838 0.0 103630
12:00−29зюз369426 0.0 1035333
15:00−25зюз369147 0.0 1033448
18:00−25юз229467 0.0 103239
21:00−29ю129543 0.0 103219